Regional Weather Roundup
Issued by NWS

Home | Current Version | Previous Version | Text Only | Print | Product List | Glossary On
Versions: 1 2 3 4 5 6 7 8 9 10 11 12 13 14 15 16 17 18 19 20 21 22 23 24 25 26 27
000
ASUS44 KJAN 191710
RWRMS

MISSISSIPPI HOURLY WEATHER ROUNDUP
NATIONAL WEATHER SERVICE JACKSON MS
1200 PM CDT TUE SEP 19 2017

NOTE: "FAIR: INDICATES FEW OR NO CLOUDS BELOW 12,000 FEET WITH NO
SIGNIFICANT WEATHER AND/OR OBSTRUCTIONS TO VISIBILITY.

MSZ001>002-007>008-010>013-018>021-025>028-034>036-191800-
NORTHWEST MISSISSIPPI

CITY           SKY/WX    TMP DP  RH WIND       PRES   REMARKS
BATESVILLE     FAIR      85  73  67 SW3       30.00F HX  92
CLARKSDALE       N/A     88  77  70 W5        29.99F HX 100
CLEVELAND      PTSUNNY   88  72  57 SW8       29.99S HX  94
GREENWOOD      PTSUNNY   88  73  61 VRB7      29.99F HX  95
GREENVILLE     SUNNY     87  72  60 W7        29.99F HX  93
OLIVE BRANCH   PTSUNNY  N/A N/A N/A SW5       29.98F
OXFORD         FAIR      84  72  65 VRB3      30.01F
TUNICA           N/A     86  73  66 W5        29.99F HX  93
WINONA         PTSUNNY   84  74  73 CALM      30.01F HX  91
$$

MSZ003>006-009-014>017-022>024-029>033-037>039-191800-
NORTHEAST MISSISSIPPI

CITY           SKY/WX    TMP DP  RH WIND       PRES   REMARKS
COLUMBUS AFB   MOSUNNY   88  77  70 NW3       29.98F HX 100
GOLDN TRIANGLE MOSUNNY   88  70  55 CALM      29.96F HX  92
STARKVILLE     FAIR      88  73  62 W3        30.01F HX  96
TUPELO         MOSUNNY   89  70  53 SW6       29.99F HX  94
$$

MSZ040-058-191800-
CENTRAL MISSISSIPPI

CITY           SKY/WX    TMP DP  RH WIND       PRES   REMARKS
JACKSON INTL   MOSUNNY   85  77  77 NE3       30.01F HX  95
JACKSON HAWKNS SUNNY     87  75  67 SW6       30.01F HX  96
MADISON        PTSUNNY   84  72  65 CALM      30.00F
MERIDIAN KEY   MOSUNNY   86  75  69 W3        30.01F HX  95
MERIDIAN NAS   MOSUNNY   91  73  55 SW7       30.00F HX  99
RAYMOND        PTSUNNY   88  75  66 S7        30.00F HX  97
VICKSBURG VKS  MOSUNNY   90  75  62 CALM      30.01F HX 100
$$

MSZ059>079-191800-
SOUTH MISSISSIPPI

CITY           SKY/WX    TMP DP  RH WIND       PRES   REMARKS
HATTIESBURG    PTSUNNY   86  74  67 W5        30.01F HX  94
LAUREL         PTSUNNY   87  73  62 N6        30.01F HX  95
MCCOMB         PTSUNNY   84  73  69 W3        30.02F HX  90
NATCHEZ        SUNNY     86  74  67 S5        30.02F HX  94
PINE BELT      MOSUNNY   88  73  61 NW5       30.01F HX  95
$$

MSZ080>082-191800-
COASTAL MISSISSIPPI

CITY           SKY/WX    TMP DP  RH WIND       PRES   REMARKS
BAY ST LOUIS   PTSUNNY   82  75  78 VRB5      30.01F
BILOXI         PTSUNNY   82  77  83 CALM      30.01S HX  91
PASCAGOULA     PTSUNNY   82  70  66 SW3       30.01S
GULFPORT       LGT RAIN  78  74  87 NW5       30.01F
$$

LAZ007>009-015>016-023>026-191800-
NORTHEAST LOUISIANA

CITY           SKY/WX    TMP DP  RH WIND       PRES   REMARKS
BASTROP        PTSUNNY   88  74  62 SW7       30.00F HX  96
TALLULAH/VBURG MOSUNNY   88  75  65 VRB3      30.00F HX  97
VIDALIA          N/A    N/A N/A N/A MISG      30.00F
$$




USA.gov is the U.S. government's official web portal to all federal, state and local government web resources and services.